Regional Weather Roundup
Issued by NWS Binghamton, NY

Current Version | Previous Version | Text Only | Print | Product List | Glossary On
Versions: 1 2 3 4 5 6 7 8 9 10 11 12 13 14 15 16 17 18 19 20 21 22 23 24 25 26 27 28 29 30 31 32 33 34 35 36 37 38 39 40 41 42 43 44 45 46 47 48 49 50
000 ASUS41 KBGM 041310 RWRBGM REGIONAL WEATHER ROUNDUP NATIONAL WEATHER SERVICE BINGHAMTON NY 800 AM EST THU MAR 04 2021 Note: "fair" indicates few or no clouds below 12,000 feet with no significant weather and/or obstructions to visibility. * = Station(s) that does not report precipitation, such as rain, snow, etc, also no thunder or fog. NYZ009-015>018-022>025-036-037-044>046-055>057-062-041400 ...Central New York... CITY SKY/WX TMP DP RH WIND PRES REMARKS Binghamton LGT SNOW 27 22 81 N13G22 29.84R WCI 16 Cortland LGT SNOW 27 21 80 NW12 29.90R WCI 16 Dansville CLOUDY 30 23 75 NW13 29.99R WCI 20 Elmira CLOUDY 33 18 53 N8G20 29.93R WCI 26 Endicott CLOUDY 30 25 80 N12G17 29.90R WCI 21 Ithaca LGT SNOW 26 22 84 N14 29.92R FOG WCI 14 Hamilton CLOUDY 27 21 80 NW10G20 29.88R WCI 17 Monticello FLURRIES 30 21 69 NW13 29.82R WCI 20 Norwich LGT SNOW 27 21 80 NW5 29.88S WCI 21 Oneonta LGT SNOW 25 21 86 W9 29.81S WCI 15 Penn Yan LGT SNOW 28 22 78 N8 29.96R WCI 20 Rome CLOUDY 26 16 65 NW13 29.93R WCI 15 Seneca Falls LGT SNOW 27 23 86 N15 29.99R WCI 15 Sidney LGT SNOW 28 23 80 NW5 29.87S WCI 23 Skaneateles LGT SNOW 25 23 93 VRB6 29.93R WCI 18 Syracuse FLURRIES 27 18 69 N13 29.97R WCI 16 $$ PAZ038>040-043-044-047-048-072-041400 ...Northeast Pennsylvania... CITY SKY/WX TMP DP RH WIND PRES REMARKS Hazleton CLOUDY 34 21 60 NW14G22 29.87S WCI 24 Scranton CLOUDY 35 17 47 NW20 29.89R WCI 24 Towanda PTSUNNY 34 18 51 N6G20 29.94R WCI 29 $$ && KEY WCI = Wind Chill Index VSB = Visibility HX = Heat Index $$

USA.gov is the U.S. government's official web portal to all federal, state and local government web resources and services.